Rechercher aéroport 
image banner adimage banner adimage banner ad
image banner ad

02CL - Conover Air Lodge

Situé à Frazier Park, United States

ICAO - 02CL, IATA -

Données fournies par Airmate  

Information générale

Coordonnées: N34°45'40" W119°3'32"
Élévation : 5160 feet MSL.
Variation magnétique : 14° East
Voir autres Aéroports à California

Données opérationnelles

Special qualification required
Heure actuelle UTC:
Heure actuelle locale:
Météo à : KCMA - Camarillo ( 61 km )
METAR: KCMA 212255Z 27007KT 10SM CLR 29/13 A3003 RMK AO2 SLP176 T02940128
TAF: KCMA 212103Z 2121/2218 26008KT P6SM SKC FM220300 VRB03KT P6SM SKC FM221000 VRB03KT 6SM BR OVC007 FM221200 VRB03KT 2SM BR OVC004 FM221500 VRB03KT 4SM BR BKN006
Voir NOTAMs / SUP AIP / TFR affectant cet aéroport [VIEW]
Fréquences de communication: [VIEW]

Pistes:

Identifiant RWYQFULongueur (ft)Largeur (ft)SurfaceLDA (ft)
16300060EARTH
34300060EARTH

Coordonnées de l'aéroport

Adresse: Frazier Park United States

Vue satellite de 02CL